Regional Weather Roundup
Issued by NWS San Angelo, TX

Home | Current Version | Previous Version | Text Only | Print | Product List | Glossary On
Versions: 1 2 3 4 5 6 7 8 9 10 11 12 13 14 15 16 17 18 19 20 21 22 23 24 25 26 27 28 29 30 31 32 33 34 35 36 37 38 39 40 41 42 43 44 45 46 47 48 49 50
340
ASUS44 KSJT 280411
RWRSJT
WEST CENTRAL TEXAS REGIONAL WEATHER ROUNDUP
NATIONAL WEATHER SERVICE SAN ANGELO TX
1100 PM CDT WED JUL 27 2016

NOTE: "FAIR" INDICATES FEW OR NO CLOUDS BELOW 12,000 FEET WITH NO
SIGNIFICANT WEATHER AND/OR OBSTRUCTIONS TO VISIBILITY.

TXZ049-054-064>066-071>073-076>078-098-099-113-114-127-128-139-140-
154-155-168>170-280500
...LOCATIONS ACROSS WEST CENTRAL TEXAS...

CITY           SKY/WX    TMP DP  RH WIND       PRES   REMARKS
SAN ANGELO     MOCLDY    81  68  64 SE9       29.98R
ABILENE        PTCLDY    78  69  73 SE9       30.01R
DYESS AFB      PTCLDY    80  68  67 SE9       29.99R
JUNCTION       CLOUDY    76  71  85 E5        30.01R
SWEETWATER     PTCLDY    80  66  62 SE13      30.05R
BROWNWOOD      CLOUDY    75  72  88 NE5       30.00R
COLEMAN        CLOUDY    76  71  84 E3        30.01R
SONORA         CLEAR     79  68  69 SE7       30.05S
OZONA          FAIR      81  63  54 S8        30.05R
BRADY          NOT AVBL
$$

TEXAS PANHANDLE/OKLAHOMA PANHANDLE

CITY           SKY/WX    TMP DP  RH WIND       PRES   REMARKS
AMARILLO       LGT RAIN  65  60  84 SW6       30.19F
BORGER         CLOUDY    71  61  70 SW9       30.09F
CANADIAN       CLOUDY    72  68  88 W5        30.05R
DALHART        CLOUDY    70  56  61 SE9       30.16R
DUMAS          CLOUDY    72  54  53 SE17G28   30.09F
GUYMON         NOT AVBL
HEREFORD       PTCLDY    75  58  57 NE22G32   30.21R
PAMPA          CLOUDY    70  64  81 W14       30.14R
PERRYTON       PTCLDY    71  65  82 S6        30.08R
$$

SOUTHERN PANHANDLE/SOUTH PLAINS/ROLLING PLAINS

CITY           SKY/WX    TMP DP  RH WIND       PRES   REMARKS
LUBBOCK        PTCLDY    77  63  61 N9        30.09R
SNYDER           N/A     84  64  50 SE12      30.03R
CHILDRESS      MOCLDY    88  62  41 N6        30.01R
SEMINOLE       CLEAR     80  62  54 NE7       30.07R
$$

PERMIAN BASIN

CITY           SKY/WX    TMP DP  RH WIND       PRES   REMARKS
MIDLAND        PTCLDY    84  63  49 SE5       30.01R
ODESSA         CLEAR     83  64  52 SE5       30.03R
WINK           CLEAR     85  60  42 SE7       29.99R
$$

FAR WEST/SOUTHWEST MOUNTAINS/TRANS PECOS

CITY           SKY/WX    TMP DP  RH WIND       PRES   REMARKS
ALPINE         CLEAR     77  58  50 SE3       30.17R
DRYDEN           N/A     81  69  67 SE14      29.98R
EL PASO        PTCLDY    82  61  48 CALM      30.05R
FORT STOCKTON  CLEAR     82  63  52 SE14G23   30.01R
GUADALUPE PASS CLOUDY    76  53  44 E12       30.20R
MARFA          CLEAR     73  56  54 E8        30.16R
PECOS          CLEAR     84  54  35 SE5       29.98R
$$

DALLAS/FORT WORTH METROPLEX

CITY           SKY/WX    TMP DP  RH WIND       PRES   REMARKS
DFW AIRPORT    CLOUDY    85  71  63 S8        29.94R
FTW MEACHAM    CLOUDY    84  72  67 S9        29.94S
DAL-EXECUTIVE  NOT AVBL
GRAND PRAIRIE  CLOUDY    84  70  62 S6        29.97R
ADDISON        MOCLDY    83  75  78 S8        29.97S HAZE
MESQUITE       CLOUDY    82  73  72 SE3       29.96R
LANCASTER      CLOUDY    81  75  82 CALM      29.96S
$$

NORTH CENTRAL TEXAS

CITY           SKY/WX    TMP DP  RH WIND       PRES   REMARKS
SHRMAN/DENISON PTCLDY    81  73  77 SE10      29.97R
GAINESVILLE    CLEAR     77  75  93 CALM      29.98S
BRIDGEPORT     CLEAR     76  76 100 CALM      29.97F
DENTON         PTCLDY    81  76  84 SE7       29.94S
WAXAHACHIE     CLOUDY    79  75  87 CALM      29.96F
GRANBURY       CLOUDY    82  70  68 CALM      29.96F
$$

WESTERN NORTH TEXAS

CITY           SKY/WX    TMP DP  RH WIND       PRES   REMARKS
WICHITA FALLS  CLEAR     81  70  69 S8        29.95R
VERNON         PTCLDY    85  65  51 S12       29.98R
BRECKENRIDGE   PTCLDY    80  68  66 S5        29.98S
COMANCHE       LGT RAIN  74  74 100 CALM      30.00R
$$

CENTRAL AND SOUTH CENTRAL TEXAS

CITY           SKY/WX    TMP DP  RH WIND       PRES   REMARKS
AUSTIN/BERGSTM MOCLDY    78  73  84 E3        29.96R
WACO           PTCLDY    80  71  74 S7        29.96R
HILLSBORO      CLOUDY    79  72  77 S7        29.96R
TEMPLE         MOCLDY    79  70  74 S10       29.97R
KILLEEN-GRAY   MOCLDY    78  71  80 VRB3      29.97R
FORT HOOD      MOCLDY    79  69  70 SE5       29.96R
GEORGETOWN     CLEAR     79  68  69 SE3       29.97S
LAGO VISTA     FAIR      77  69  76 CALM      30.00R
SAN MARCOS     CLOUDY    75  73  94 CALM      29.99R
NEW BRAUNFELS  PTCLDY    77  74  90 N3        29.96R
RANDOLPH AFB   CLOUDY    75  75 100 NE3       29.97R
SAN ANTONIO    MOCLDY    77  73  87 CALM      29.97R
STINSON        PTCLDY    78  73  84 E3        29.94R
PLEASANTON     NOT AVBL
LA GRANGE        N/A     75  73  92 CALM      29.95S
GIDDINGS       PTCLDY    74  72  91 SE5       30.01R
$$

EAST TEXAS

CITY           SKY/WX    TMP DP  RH WIND       PRES   REMARKS
PARIS          CLOUDY    75  64  69 S7        29.97S
CLARKSVILLE    NOT AVBL
TYLER          LGT RAIN  77  73  87 CALM      29.97S
LONGVIEW       LGT RAIN  74  73  97 SW3       29.97R
PALESTINE      PTCLDY    80  74  81 SE3       29.98F
NACOGDOCHES    CLOUDY   N/A N/A N/A S5        29.96F
$$

TEXAS HILL COUNTRY AND EDWARDS PLATEAU

CITY           SKY/WX    TMP DP  RH WIND       PRES   REMARKS
LLANO          MOCLDY    77  77 100 CALM      30.02R
HORSESHOE BAY  FAIR      77  69  76 CALM      29.99R
KERRVILLE      CLOUDY    74  72  93 SE5       30.01R
FREDERICKSBRG  MOCLDY    73  69  89 CALM      30.02R
ROCKSPRINGS    CLEAR     72  70  94 CALM      30.06R
HONDO          PTCLDY    76  74  93 NE6       29.99R
UVALDE         PTCLDY    76  73  90 E6        29.97R
DEL RIO        CLEAR     81  71  71 E5        29.94R
$$

SOUTHEAST TEXAS

CITY           SKY/WX    TMP DP  RH WIND       PRES   REMARKS
COLLEGE STN    PTCLDY    76  74  93 E5        29.97R
CALDWELL       CLEAR     73  73 100 CALM      29.99F
CROCKETT       CLEAR     77  75  94 S5        30.01S
BRENHAM        MOCLDY    77  73  86 CALM      29.98S
HUNTSVILLE     CLEAR     79  75  87 CALM      29.98R
CONROE         CLEAR     78  76  93 SE5       29.97S
HOUSTON BUSH   CLOUDY    81  76  84 S3        29.97R
HOUSTON HOBBY  CLOUDY    82  78  88 SE3       29.96R
PERLAND        CLOUDY    84  79  85 SE3       29.98R
WHARTON        MOCLDY    80  77  91 SE5       29.97R
$$

THE UPPER TEXAS COAST

CITY           SKY/WX    TMP DP  RH WIND       PRES   REMARKS
ORANGE         MOCLDY    80  75  86 CALM      30.01R
PORT ARTHUR    CLOUDY    81  77  88 S6        29.98R
GALVESTON      CLOUDY    84  79  85 S12       29.98R
ANGLETON       CLOUDY    84  79  85 S7        29.96S
BAY CITY       CLOUDY    82  78  89 SE5       29.96S
$$

TEXAS COASTAL BEND, RIO GRANDE PLAINS DEEP SOUTH TEXAS

CITY           SKY/WX    TMP DP  RH WIND       PRES   REMARKS
VICTORIA       CLOUDY    81  77  88 SE9       29.95R
BEEVILLE       FAIR      80  77  91 SE7       29.94R
ROCKPORT       PTCLDY    85  78  80 SE10      29.93R
PORT ARANSAS   CLEAR     84  80  87 S10G18    29.93S
PORT LAVACA    CLOUDY    82  79  91 CALM      29.95R
CORPUS CHRISTI MOCLDY    83  79  88 SE10      29.93R
KINGSVILLE NAS PTCLDY    82  80  94 SE13      29.93R
COTULLA        CLEAR     79  73  82 E10       29.93R
LAREDO         PTCLDY    85  71  63 S5        29.92R
BROWNSVILLE    CLEAR     82  77  84 SE7       29.93S
PORT ISABEL    CLEAR     84  79  85 SE12      29.93R
HEBBRONVILLE   CLEAR     83  71  66 SE10      29.94R
MCALLEN        CLEAR     86  75  69 SE14      29.92R
WESLACO        CLEAR     81  32  17 SE9       29.92R
FALFURRIAS     CLEAR     83  74  74 SE12      29.92R
EDINBURG       CLEAR     86  74  68 SE13      29.92R
$$




USA.gov is the U.S. government's official web portal to all federal, state and local government web resources and services.